STARLINK-3902 (52487 NORAD) Tracking and Keplerian Element Data

This shows tracking and keplerian element data for the satellite.

Feedback or suggestion? Click here.




ElementValue
Catalog52487
NameSTARLINK-3902
Epoch Orbit130
Epoch Day167.08334491
Epoch Year2022
RAAN64.9811
Inclination53.2166
Eccentricity0.0001814
Argument of Perigee28.8612
Mean Anonmoly118.8334
Mean Motion15.73192989
Decay Rate0.0008385
L11 52487U 22049AN 22167.08334491 .00083850 00000+0 59607-3 0 9996
L22 52487 53.2166 64.9811 0001814 28.8612 118.8334 15.73192989 1307

Live tracking and technical data element details for STARLINK-3902 (NORAD 52487). STARLINK-3902 can be tracked NOW for your location showing map with azimuth and elevation plus other details from your city location.

Track the satellite on the map from your city or location and see movement details for azimuth, elevation, latitude, longitude, range, height, and movement on the map or in text.







IsCatalogInMostPopularTable: catalog: 52487, numindb: 1
Update: records affected: 1



GetName: 52487 STARLINK-3902

Hit Count: updated at: Mon, 27 Jun 2022 05:24:06 GMT